| time (UTC) | temp F | wind direction | speed MPH | gust MPH | rain 1hr in | rain 24hr in | rain mn in | humidity % | barometer mb |
| 20260505010053 | 45 | 0 | 1.0 | 4.0 | 0.00 | 0.00 | 0.00 | 53 | 1014.2 |
| 20260505004548 | 45 | 0 | 1.0 | 7.0 | 0.00 | 0.00 | 0.00 | 52 | 1014.3 |
| 20260505003053 | 46 | 316 | 1.0 | 7.0 | 0.00 | 0.00 | 0.00 | 53 | 1014.5 |
| 20260505001545 | 45 | 0 | 1.0 | 5.0 | 0.00 | 0.00 | 0.00 | 56 | 1014.7 |
| 20260505000043 | 44 | 264 | 0.0 | 4.0 | 0.00 | 0.00 | 0.00 | 64 | 1015.4 |
| 20260504234545 | 42 | 257 | 0.0 | 2.0 | 0.00 | 0.00 | 0.00 | 69 | 1015.4 |
| 20260504233039 | 42 | 274 | 3.0 | 10.0 | 0.00 | 0.00 | 0.00 | 72 | 1015.6 |
| 20260504231539 | 45 | 309 | 5.0 | 12.0 | 0.00 | 0.00 | 0.00 | 57 | 1015.9 |
| 20260504230046 | 46 | 217 | 4.0 | 12.0 | 0.00 | 0.00 | 0.00 | 50 | 1015.5 |
| 20260504224543 | 47 | 265 | 11.0 | 26.0 | 0.00 | 0.00 | 0.00 | 44 | 1015.0 |
| 20260504223101 | 50 | 292 | 6.0 | 16.0 | 0.00 | 0.00 | 0.00 | 39 | 1014.6 |
| 20260504221540 | 53 | 270 | 3.0 | 11.0 | 0.00 | 0.00 | 0.00 | 36 | 1014.6 |
| 20260504220040 | 53 | 302 | 5.0 | 12.0 | 0.00 | 0.00 | 0.00 | 37 | 1014.8 |
| 20260504214538 | 53 | 319 | 4.0 | 14.0 | 0.00 | 0.00 | 0.00 | 37 | 1014.9 |
| 20260504213044 | 50 | 261 | 3.0 | 10.0 | 0.00 | 0.00 | 0.00 | 41 | 1015.4 |
| 20260504211615 | 48 | 281 | 3.0 | 15.0 | 0.00 | 0.00 | 0.00 | 43 | 1015.7 |
| 20260504210046 | 46 | 238 | 6.0 | 17.0 | 0.00 | 0.00 | 0.00 | 50 | 1015.7 |
| 20260504204539 | 49 | 279 | 8.0 | 26.0 | 0.00 | 0.00 | 0.00 | 40 | 1015.8 |
| 20260504203038 | 54 | 284 | 3.0 | 10.0 | 0.00 | 0.00 | 0.00 | 31 | 1014.8 |
| 20260504201538 | 55 | 355 | 2.0 | 9.0 | 0.00 | 0.00 | 0.00 | 33 | 1015.0 |
| 20260504200043 | 52 | 20 | 2.0 | 10.0 | 0.00 | 0.00 | 0.00 | 38 | 1015.3 |
| 20260504194549 | 49 | 348 | 5.0 | 12.0 | 0.00 | 0.00 | 0.00 | 47 | 1015.7 |
| 20260504193041 | 51 | 333 | 2.0 | 9.0 | 0.00 | 0.00 | 0.00 | 44 | 1016.2 |
| 20260504191546 | 47 | 261 | 4.0 | 12.0 | 0.00 | 0.00 | 0.00 | 57 | 1016.6 |
| 20260504190044 | 41 | 265 | 10.0 | 23.0 | 0.00 | 0.00 | 0.00 | 71 | 1017.3 |
| 20260504184550 | 45 | 268 | 11.0 | 23.0 | 0.00 | 0.00 | 0.00 | 63 | 1017.2 |
| 20260504183042 | 47 | 273 | 10.0 | 24.0 | 0.00 | 0.00 | 0.00 | 51 | 1016.8 |
| 20260504181538 | 52 | 261 | 5.0 | 18.0 | 0.00 | 0.00 | 0.00 | 33 | 1015.9 |
| 20260504180039 | 53 | 311 | 3.0 | 12.0 | 0.00 | 0.00 | 0.00 | 30 | 1015.9 |
| 20260504174543 | 51 | 253 | 6.0 | 14.0 | 0.00 | 0.00 | 0.00 | 35 | 1016.3 |
| 20260504173050 | 50 | 279 | 5.0 | 15.0 | 0.00 | 0.00 | 0.00 | 34 | 1016.7 |
| 20260504171544 | 49 | 222 | 3.0 | 13.0 | 0.00 | 0.00 | 0.00 | 35 | 1016.9 |
| 20260504081543 | 36 | 203 | 4.0 | 10.0 | 0.00 | 0.00 | 0.00 | 48 | 1018.2 |
| 20260504044544 | 35 | 221 | 1.0 | 4.0 | 0.00 | 0.00 | 0.00 | 58 | 1019.9 |
| 20260504043044 | 35 | 0 | 0.0 | 5.0 | 0.00 | 0.00 | 0.00 | 63 | 1020.2 |
| 20260504041542 | 35 | 0 | 0.0 | 3.0 | 0.00 | 0.00 | 0.00 | 67 | 1020.3 |
| 20260504040041 | 36 | 211 | 1.0 | 4.0 | 0.00 | 0.00 | 0.00 | 61 | 1020.4 |
| 20260504034544 | 36 | 196 | 1.0 | 4.0 | 0.00 | 0.00 | 0.00 | 60 | 1020.5 |
| 20260504033048 | 36 | 146 | 1.0 | 3.0 | 0.00 | 0.00 | 0.00 | 63 | 1020.4 |
| 20260504031554 | 37 | 146 | 1.0 | 3.0 | 0.00 | 0.00 | 0.00 | 61 | 1020.2 |
| 20260504030044 | 37 | 146 | 1.0 | 4.0 | 0.00 | 0.00 | 0.00 | 62 | 1020.1 |
| 20260504024540 | 38 | 147 | 1.0 | 4.0 | 0.00 | 0.00 | 0.00 | 61 | 1020.1 |
| 20260504023039 | 40 | 142 | 2.0 | 4.0 | 0.00 | 0.00 | 0.00 | 54 | 1020.0 |
| 20260504021540 | 40 | 171 | 1.0 | 4.0 | 0.00 | 0.00 | 0.00 | 55 | 1020.2 |
| 20260504020050 | 42 | 161 | 2.0 | 6.0 | 0.00 | 0.00 | 0.00 | 50 | 1020.1 |
| 20260504014544 | 45 | 188 | 0.0 | 5.0 | 0.00 | 0.00 | 0.00 | 42 | 1020.2 |
| 20260504013044 | 47 | 267 | 3.0 | 9.0 | 0.00 | 0.00 | 0.00 | 37 | 1020.3 |
| 20260504011542 | 48 | 241 | 2.0 | 8.0 | 0.00 | 0.00 | 0.00 | 32 | 1019.9 |